This is the latest recevied weather packets stored in our database for station/object WW4HG. If no packets are shown the sender has not sent any weather packets the latest 10 day(s).
| Time | Temp. | Humidity | Pressure | Rain* | Wind** | Luminosity | Snow |
|---|---|---|---|---|---|---|---|
| 1777404313 | 20° C | 52% | 1019 hPa | 0 mm | - | 155 W/m² | - |
| 1777404009 | 20° C | 52% | 1019 hPa | 0 mm | - | 157 W/m² | - |
| 1777403704 | 20° C | 52% | 1019.7 hPa | 0 mm | - | 159 W/m² | - |
| 1777403397 | 20° C | 53% | 1019.7 hPa | 0 mm | - | 156 W/m² | - |
| 1777403092 | 19.44° C | 53% | 1020.4 hPa | 0 mm | - | 153 W/m² | - |
| 1777402788 | 19.44° C | 54% | 1020.1 hPa | 0 mm | - | 135 W/m² | - |
| 1777402485 | 19.44° C | 54% | 1019.7 hPa | 0 mm | - | 136 W/m² | - |
| 1777402182 | 18.89° C | 54% | 1020.4 hPa | 0 mm | - | 124 W/m² | - |
| 1777401882 | 18.89° C | 55% | 1020.1 hPa | 0 mm | - | 119 W/m² | - |
| 1777401576 | 18.89° C | 55% | 1020.4 hPa | 0 mm | - | 110 W/m² | - |
| 1777401272 | 18.89° C | 55% | 1020.4 hPa | 0 mm | - | 99 W/m² | - |
| 1777400968 | 18.89° C | 57% | 1020.4 hPa | 0 mm | - | 99 W/m² | - |
| 1777400664 | 18.89° C | 57% | 1020.1 hPa | 0 mm | - | 101 W/m² | - |
| 1777400362 | 18.89° C | 58% | 1020.7 hPa | 0 mm | - | 93 W/m² | - |
| 1777400057 | 18.89° C | 57% | 1020.4 hPa | 0 mm | - | 101 W/m² | - |
| 1777399755 | 19.44° C | 57% | 1021.1 hPa | 0 mm | - | 92 W/m² | - |
| 1777399451 | 19.44° C | 55% | 1021.4 hPa | 0 mm | - | 70 W/m² | - |
| 1777399149 | 18.89° C | 55% | 1021.7 hPa | 0 mm | - | 77 W/m² | - |
| 1777398845 | 18.89° C | 55% | 1021.7 hPa | 0 mm | - | 92 W/m² | - |
| 1777398543 | 18.89° C | 56% | 1022.4 hPa | 0 mm | - | 109 W/m² | - |
| 1777398238 | 18.33° C | 56% | 1022.4 hPa | 0 mm | - | 119 W/m² | - |
| 1777397936 | 18.33° C | 57% | 1022.4 hPa | 0 mm | - | 130 W/m² | - |
| 1777397626 | 18.33° C | 58% | 1022.4 hPa | 0 mm | - | 152 W/m² | - |
| 1777397323 | 18.33° C | 58% | 1022.8 hPa | 0 mm | - | 133 W/m² | - |
| 1777397019 | 18.89° C | 57% | 1023.1 hPa | 0 mm | - | 124 W/m² | - |
* Rain latest hour (hover to see other rain measurements)
** Current wind speed in m/s (hover to see current wind gust speed)